This is the latest recevied weather packets stored in our database for station/object K8FJG-13. If no packets are shown the sender has not sent any weather packets the latest 10 day(s).
| Time | Temp. | Humidity | Pressure | Rain* | Wind** | Luminosity | Snow |
|---|---|---|---|---|---|---|---|
| 1777909235 | 18.89° C | 51% | 963.1 hPa | - | - | - | - |
| 1777908632 | 18.33° C | 53% | 963.1 hPa | - | - | - | - |
| 1777908029 | 18.33° C | 54% | 963 hPa | - | - | - | - |
| 1777907426 | 17.78° C | 53% | 963.1 hPa | - | - | - | - |
| 1777906823 | 17.22° C | 54% | 963.3 hPa | - | - | - | - |
| 1777906220 | 17.22° C | 55% | 963.3 hPa | - | - | - | - |
| 1777905617 | 17.22° C | 54% | 963.3 hPa | - | - | - | - |
| 1777905013 | 16.11° C | 56% | 963.4 hPa | - | - | - | - |
| 1777904410 | 15.56° C | 56% | 963.4 hPa | - | - | - | - |
| 1777903807 | 15.56° C | 57% | 963.5 hPa | - | - | - | - |
| 1777903204 | 15.56° C | 58% | 963.7 hPa | - | - | - | - |
| 1777902601 | 15° C | 58% | 963.8 hPa | - | - | - | - |
| 1777901998 | 14.44° C | 60% | 963.9 hPa | - | - | - | - |
| 1777901395 | 14.44° C | 58% | 964 hPa | - | - | - | - |
| 1777900791 | 13.89° C | 58% | 964.1 hPa | - | - | - | - |
| 1777900188 | 13.33° C | 59% | 964.2 hPa | - | - | - | - |
| 1777899585 | 13.33° C | 59% | 964.2 hPa | - | - | - | - |
| 1777898982 | 12.78° C | 61% | 964.2 hPa | - | - | - | - |
| 1777898379 | 12.78° C | 60% | 964.2 hPa | - | - | - | - |
| 1777897775 | 12.22° C | 60% | 964.1 hPa | - | - | - | - |
| 1777897172 | 11.67° C | 62% | 964.2 hPa | - | - | - | - |
| 1777896569 | 11.11° C | 63% | 964.2 hPa | - | - | - | - |
| 1777895966 | 11.11° C | 63% | 964.1 hPa | - | - | - | - |
| 1777895363 | 10.56° C | 65% | 964 hPa | - | - | - | - |
| 1777894760 | 10° C | 66% | 963.9 hPa | - | - | - | - |
* Rain since midnight (hover to see other rain measurements)
** Current wind speed in m/s (hover to see current wind gust speed)